STARLINK-34325, 64262

Orbit data source: Space-Track

STARLINK-34325, 64262 is a payload satellite owned by SpaceX/Seattle (US) in LEO that was launched on Wed, 04 Jun 2025 UTC via an FALCON 9 launch vehicle from the Air Force Western Test Range (AFWTR). Payload-class satellites include a variety of spacecraft equipped with specific instruments for various scientific and technological missions. These include communications satellites like Starlink; space stations such as the ISS; scientific satellites like the Hubble; Earth observation satellites from companies like Planet Labs, Umbra, and HawkEye 360; GPS; miniature CubeSats for education and research; and military/defense satellites.

Loading next visibility...
Identifier
64262, 2025-120G
Orbit
LEO
Country
Flag of USUS
Related business
Manufacturer
SpaceX/Seattle
Mission
Operational Commercial Communications
Bus & Motor
STARLINK V2MO, Unknown motor
Mass
575 kg wet, ~530 kg dry
Launch date (UTC)
2025-06-04 (1 year ago)
Launch vehicle
FALCON 9
Launch site
Air Force Western Test Range (AFWTR)
Object type
Payload
Rocket body
Debris
Shape & HBR
Box + 2 Pan, 17.7 m
Radar Cross Section
36.964 m², Large (>1 m²)

Expand to show TLE details & history
Last TLE update: 22 hours ago

TLE from 22 hours ago
0 STARLINK-34325
1 64262U 25120G   26170.91381599  .00026286  00000-0  89620-3 0  9993
2 64262  53.1612   2.1174 0000954  84.9813 275.1297 15.30210718 59562
Epoch: 2026-06-19T21:55Z
TLE epoch observation values (Epoch: 2026-06-19T21:55:53.701Z)
Latitude
Longitude
125.00768°
Altitude
476.025 km
Speed
7.629 km/s
True Right ascension
00h 08m 28s
True Declination
0° 00' 00"
Sunlit
Object was in daylight at epoch
Visualization orbit readout
Latitude
Unknown
Longitude
Unknown
Altitude
Unknown
Speed
Unknown
Apparent Right ascension
Unknown
Apparent Declination
Unknown
Sunlit
N/A
Visualization observer readout
Local Sidereal Time
07:12:32
Azimuth
Unknown
Elevation
Unknown
Doppler factor
Unknown
Orbital elements
Apogee altitude
476.093 km
Perigee altitude
474.785 km
Semi-major axis
6,853.576 km
Eccentricity
0.0001
Inclination
53.1612°
RAAN
2.1174°
Arg. of periapsis
84.9813°
True anomaly
275.11881°
Mean anomaly
275.1297°
Eccentric anomaly
275.12426°
Mean motion
3.82532 °/min
Orbital period
94.11 mins
BSTAR
0.0008962
Loading maneuver chart data...
Computing Atmospheric mass density...
Loading historical data...
Loading historical data...
Loading historical data...
Loading historical data...
Loading historical data...
Loading historical data...
Loading historical data...

Documentation

Showing up to 5 results
|